NYT5C VNKT-VNLK

Flight info

Callsign NYT5C
Flight time 0h 41m
Altitude 17000
Route IGRIS1E KIMTI DCT VNPL
Aircraft DH8C/M-SDFGR/S

Departure

Time 2026-04-18 08:25
Airport Tribhuvan International Airport (VNKT)

Arrival

Time 2026-04-18 09:06
Airport Tenzing-Hillary Airport (VNLK)
Time Latitude Longitude Altitude Speed Heading
2026-04-18 08:19 27.69996 85.35827 4360 ft 0 kts 292°
2026-04-18 08:24 27.70000 85.35821 4365 ft 1 kts 348°
2026-04-18 08:24 27.69995 85.35831 4359 ft 5 kts 174°
2026-04-18 08:24 27.69916 85.35957 4359 ft 55 kts 114°
2026-04-18 08:25 27.69629 85.36520 4613 ft 93 kts 141°
2026-04-18 08:25 27.69043 85.36532 5144 ft 99 kts 205°
2026-04-18 08:25 27.68374 85.36497 5527 ft 114 kts 135°
2026-04-18 08:25 27.68194 85.37392 5905 ft 125 kts 90°
2026-04-18 08:26 27.68003 85.38418 6181 ft 139 kts 118°
2026-04-18 08:26 27.67383 85.39140 6880 ft 123 kts 150°
2026-04-18 08:26 27.66769 85.39741 7404 ft 122 kts 109°
2026-04-18 08:26 27.66972 85.40628 7910 ft 118 kts 57°
2026-04-18 08:27 27.67214 85.41496 8417 ft 120 kts 95°
2026-04-18 08:27 27.67023 85.42388 8940 ft 118 kts 104°
2026-04-18 08:27 27.66825 85.43298 9477 ft 118 kts 104°
2026-04-18 08:27 27.66626 85.44187 9996 ft 118 kts 104°
2026-04-18 08:28 27.66423 85.45084 10511 ft 118 kts 104°
2026-04-18 08:28 27.66218 85.45986 11024 ft 118 kts 104°
2026-04-18 08:28 27.66012 85.46883 11524 ft 118 kts 104°
2026-04-18 08:28 27.65805 85.47785 12020 ft 119 kts 104°
2026-04-18 08:29 27.65609 85.48687 12515 ft 119 kts 103°
2026-04-18 08:29 27.65397 85.49700 12616 ft 150 kts 103°
2026-04-18 08:29 27.65151 85.50879 12896 ft 153 kts 103°
2026-04-18 08:29 27.64924 85.51998 13398 ft 144 kts 103°
2026-04-18 08:30 27.64699 85.53121 13630 ft 155 kts 103°
2026-04-18 08:30 27.64454 85.54334 13841 ft 161 kts 103°
2026-04-18 08:30 27.64206 85.55560 14137 ft 160 kts 103°
2026-04-18 08:30 27.63955 85.56802 14361 ft 165 kts 103°
2026-04-18 08:31 27.63697 85.58082 14497 ft 171 kts 103°
2026-04-18 08:31 27.63429 85.59409 14602 ft 175 kts 103°
2026-04-18 08:31 27.63155 85.60764 14669 ft 180 kts 103°
2026-04-18 08:31 27.62873 85.62160 14675 ft 185 kts 103°
2026-04-18 08:32 27.62585 85.63581 14660 ft 188 kts 103°
2026-04-18 08:32 27.62296 85.65008 14637 ft 189 kts 103°
2026-04-18 08:32 27.62003 85.66458 14604 ft 191 kts 103°
2026-04-18 08:32 27.61707 85.67918 14563 ft 192 kts 103°
2026-04-18 08:33 27.61409 85.69390 14507 ft 193 kts 103°
2026-04-18 08:33 27.61111 85.70862 14455 ft 193 kts 103°
2026-04-18 08:33 27.60810 85.72345 14391 ft 194 kts 103°
2026-04-18 08:33 27.60510 85.73822 14320 ft 194 kts 103°
2026-04-18 08:34 27.60208 85.75312 14241 ft 195 kts 103°
2026-04-18 08:34 27.59909 85.76782 14160 ft 195 kts 103°
2026-04-18 08:34 27.59523 85.78227 14050 ft 193 kts 118°
2026-04-18 08:34 27.58514 85.79213 13911 ft 196 kts 156°
2026-04-18 08:35 27.57183 85.79359 13773 ft 197 kts 193°
2026-04-18 08:35 27.55963 85.78676 13667 ft 196 kts 212°
2026-04-18 08:35 27.54829 85.77840 13574 ft 193 kts 211°
2026-04-18 08:35 27.53524 85.77592 13420 ft 196 kts 168°
2026-04-18 08:36 27.52421 85.78443 13271 ft 198 kts 125°
2026-04-18 08:36 27.52141 85.79912 13125 ft 199 kts 82°
2026-04-18 08:36 27.52723 85.81292 13009 ft 195 kts 56°
2026-04-18 08:36 27.53503 85.82536 12913 ft 195 kts 54°
2026-04-18 08:37 27.54299 85.83775 12812 ft 195 kts 54°
2026-04-18 08:37 27.55092 85.85013 12709 ft 195 kts 54°
2026-04-18 08:37 27.55884 85.86262 12604 ft 195 kts 56°
2026-04-18 08:37 27.56547 85.87587 12491 ft 195 kts 66°
2026-04-18 08:38 27.56836 85.88548 12455 ft 194 kts 75°
2026-04-18 08:38 27.56902 85.90031 12438 ft 190 kts 99°
2026-04-18 08:38 27.56451 85.91928 12441 ft 189 kts 106°
2026-04-18 08:38 27.56112 85.93357 12443 ft 189 kts 104°
2026-04-18 08:39 27.55818 85.94803 12440 ft 189 kts 102°
2026-04-18 08:39 27.55543 85.96248 12441 ft 189 kts 102°
2026-04-18 08:39 27.55360 85.97207 12443 ft 189 kts 102°
2026-04-18 08:39 27.55081 85.98656 12441 ft 189 kts 102°
2026-04-18 08:40 27.54804 86.00100 12443 ft 189 kts 102°
2026-04-18 08:40 27.54539 86.02022 12443 ft 187 kts 91°
2026-04-18 08:40 27.54687 86.03476 12439 ft 188 kts 77°
2026-04-18 08:40 27.55145 86.04849 12440 ft 188 kts 63°
2026-04-18 08:41 27.55893 86.06060 12441 ft 188 kts 48°
2026-04-18 08:41 27.56522 86.06729 12441 ft 188 kts 39°
2026-04-18 08:41 27.57640 86.07498 12442 ft 188 kts 25°
2026-04-18 08:41 27.58886 86.07929 12442 ft 188 kts 10°
2026-04-18 08:42 27.60192 86.07995 12442 ft 188 kts 355°
2026-04-18 08:42 27.61465 86.07692 12442 ft 188 kts 341°
2026-04-18 08:42 27.62635 86.07034 12440 ft 188 kts 326°
2026-04-18 08:42 27.63615 86.06066 12441 ft 188 kts 311°
2026-04-18 08:43 27.64345 86.04848 12442 ft 188 kts 297°
2026-04-18 08:43 27.64774 86.03472 12443 ft 188 kts 282°
2026-04-18 08:43 27.64879 86.02007 12440 ft 188 kts 268°
2026-04-18 08:43 27.64643 86.00554 12440 ft 189 kts 252°
2026-04-18 08:44 27.64084 85.99225 12440 ft 189 kts 237°
2026-04-18 08:44 27.63234 85.98101 12442 ft 188 kts 222°
2026-04-18 08:44 27.62157 85.97269 12442 ft 189 kts 207°
2026-04-18 08:44 27.60923 85.96783 12440 ft 189 kts 192°
2026-04-18 08:45 27.59614 85.96680 12439 ft 189 kts 176°
2026-04-18 08:45 27.58331 85.96970 12440 ft 189 kts 161°
2026-04-18 08:45 27.57171 85.97624 12443 ft 189 kts 146°
2026-04-18 08:45 27.56198 85.98609 12441 ft 189 kts 131°
2026-04-18 08:46 27.55490 85.99856 12441 ft 189 kts 115°
2026-04-18 08:46 27.55107 86.01266 12442 ft 189 kts 99°
2026-04-18 08:46 27.55075 86.02744 12441 ft 189 kts 84°
2026-04-18 08:46 27.55396 86.04171 12440 ft 189 kts 68°
2026-04-18 08:47 27.55975 86.05478 12437 ft 185 kts 63°
2026-04-18 08:47 27.56553 86.06747 12444 ft 185 kts 58°
2026-04-18 08:47 27.57351 86.07888 12445 ft 187 kts 46°
2026-04-18 08:47 27.58359 86.08805 12450 ft 187 kts 33°
2026-04-18 08:48 27.59533 86.09446 12454 ft 188 kts 20°
2026-04-18 08:48 27.60802 86.09771 12456 ft 188 kts
2026-04-18 08:48 27.62108 86.09761 12459 ft 188 kts 353°
2026-04-18 08:48 27.63375 86.09415 12458 ft 188 kts 340°
2026-04-18 08:49 27.64541 86.08746 12460 ft 188 kts 327°
2026-04-18 08:49 27.65540 86.07813 12505 ft 184 kts 317°
2026-04-18 08:49 27.66459 86.06861 12655 ft 180 kts 317°
2026-04-18 08:49 27.67380 86.05921 12790 ft 178 kts 318°
2026-04-18 08:50 27.68300 86.04987 12921 ft 178 kts 318°
2026-04-18 08:50 27.69087 86.04217 13962 ft 116 kts 318°
2026-04-18 08:50 27.69708 86.03539 14123 ft 148 kts 314°
2026-04-18 08:50 27.70680 86.03075 14116 ft 162 kts 17°
2026-04-18 08:51 27.71117 86.04082 14378 ft 162 kts 103°
2026-04-18 08:51 27.70929 86.05325 14560 ft 160 kts 87°
2026-04-18 08:51 27.71275 86.06483 14901 ft 159 kts 57°
2026-04-18 08:51 27.72157 86.07355 14812 ft 179 kts 27°
2026-04-18 08:52 27.73078 86.08245 14769 ft 180 kts 67°
2026-04-18 08:52 27.73183 86.09633 14436 ft 195 kts 94°
2026-04-18 08:52 27.73041 86.11140 14347 ft 197 kts 96°
2026-04-18 08:52 27.72887 86.12687 14300 ft 193 kts 96°
2026-04-18 08:53 27.72771 86.14170 14361 ft 189 kts 95°
2026-04-18 08:53 27.72663 86.15666 14234 ft 195 kts 94°
2026-04-18 08:53 27.72553 86.17200 13977 ft 200 kts 96°
2026-04-18 08:53 27.72412 86.18569 14826 ft 146 kts 96°
2026-04-18 08:54 27.72483 86.19640 15157 ft 153 kts 68°
2026-04-18 08:54 27.72927 86.20849 15091 ft 168 kts 66°
2026-04-18 08:54 27.73400 86.21949 15703 ft 143 kts 62°
2026-04-18 08:54 27.73869 86.22891 16181 ft 138 kts 57°
2026-04-18 08:55 27.74463 86.23880 16141 ft 163 kts 55°
2026-04-18 08:55 27.75243 86.24877 16168 ft 175 kts 44°
2026-04-18 08:55 27.76207 86.25747 16188 ft 181 kts 34°
2026-04-18 08:55 27.77310 86.26441 16227 ft 183 kts 24°
2026-04-18 08:56 27.78498 86.26919 16268 ft 184 kts 15°
2026-04-18 08:56 27.79750 86.27198 16308 ft 181 kts 20°
2026-04-18 08:56 27.80823 86.27858 16353 ft 178 kts 36°
2026-04-18 08:56 27.81633 86.28830 16324 ft 166 kts 74°
2026-04-18 08:57 27.81675 86.31241 16171 ft 156 kts 136°
2026-04-18 08:57 27.80903 86.32151 16134 ft 166 kts 134°
2026-04-18 08:57 27.80168 86.33195 16161 ft 174 kts 123°
2026-04-18 08:58 27.79591 86.34417 16238 ft 177 kts 114°
2026-04-18 08:58 27.79192 86.35721 16319 ft 178 kts 105°
2026-04-18 08:58 27.78881 86.37000 16702 ft 163 kts 105°
2026-04-18 08:58 27.78646 86.38241 17009 ft 154 kts 101°
2026-04-18 08:59 27.78388 86.39379 17382 ft 148 kts 108°
2026-04-18 08:59 27.77987 86.40454 17661 ft 149 kts 116°
2026-04-18 08:59 27.77524 86.41499 17896 ft 152 kts 115°
2026-04-18 08:59 27.77086 86.42630 17995 ft 162 kts 110°
2026-04-18 09:00 27.76677 86.43821 18124 ft 165 kts 115°
2026-04-18 09:00 27.76149 86.44981 18152 ft 172 kts 115°
2026-04-18 09:00 27.75715 86.46261 18188 ft 177 kts 107°
2026-04-18 09:00 27.75423 86.47626 18220 ft 180 kts 100°
2026-04-18 09:01 27.75311 86.49060 18127 ft 187 kts 90°
2026-04-18 09:01 27.75445 86.50530 18091 ft 189 kts 79°
2026-04-18 09:01 27.75759 86.51948 18133 ft 179 kts 82°
2026-04-18 09:01 27.75239 86.53103 18431 ft 162 kts 134°
2026-04-18 09:02 27.74483 86.53983 18793 ft 151 kts 126°
2026-04-18 09:02 27.74138 86.55098 18969 ft 154 kts 99°
2026-04-18 09:02 27.73983 86.56297 19106 ft 158 kts 100°
2026-04-18 09:02 27.73929 86.57526 19321 ft 156 kts 79°
2026-04-18 09:03 27.74115 86.58740 19314 ft 165 kts 97°
2026-04-18 09:03 27.73414 86.59869 18851 ft 195 kts 147°
2026-04-18 09:03 27.72140 86.60512 18491 ft 204 kts 159°
2026-04-18 09:03 27.70828 86.61172 18037 ft 211 kts 144°
2026-04-18 09:04 27.69920 86.62405 17922 ft 203 kts 120°
2026-04-18 09:04 27.69269 86.63823 17514 ft 210 kts 116°
2026-04-18 09:04 27.68519 86.65381 16168 ft 239 kts 120°
2026-04-18 09:04 27.67628 86.66998 13823 ft 246 kts 122°
2026-04-18 09:05 27.66701 86.68667 10908 ft 254 kts 121°
2026-04-18 09:05 27.66566 86.70291 10471 ft 167 kts 36°
2026-04-18 09:05 27.67475 86.70827 9590 ft 159 kts 24°
2026-04-18 09:05 27.68109 86.71673 9165 ft 136 kts 73°
2026-04-18 09:06 27.68436 86.72484 9101 ft 86 kts 61°
2026-04-18 09:06 27.68517 86.72636 9070 ft 0 kts 268°